Fort Stewart, GA

9:09 AM EST on February 20, 2017 (GMT -0500)
Wright Army Air Field

Weather History for KLHW - February, 2014

Change the Weather History Date:

Wednesday, February 19, 2014

  Actual Average Record
Temperature  
Mean Temperature 64 °F -  
Max Temperature 80 °F 67 °F 81 °F (1976)
Min Temperature 48 °F 44 °F 23 °F (1979)
Degree Days  
Heating Degree Days 1    
Growing Degree Days 14 (Base 50)    
Moisture  
Dew Point 53 °F    
Average Humidity 75    
Maximum Humidity 100    
Minimum Humidity 37    
Precipitation  
Precipitation 0.00 in - - ()
Sea Level Pressure  
Sea Level Pressure 30.10 in    
Wind  
Wind Speed 5 mph (SW)    
Max Wind Speed 21 mph    
Max Gust Speed 25 mph    
Visibility 8 miles    
Events      
Averages and records for this station are not official NWS values.
T = Trace of Precipitation, MM = Missing Value Source: NWS Daily Summary

Daily Weather History Graph

Daily Weather History Graph

Search for Another Location

Airport or City:

Trip Planner

Search our weather history database for the weather conditions in past years. The results will help you decide how hot, cold, wet, or windy it might be!

Date:

Astronomy

Feb. 19, 2014 Rise Set
Actual Time 7:04 AM EST 6:16 PM EST
Civil Twilight 6:39 AM EST 6:40 PM EST
Nautical Twilight 6:11 AM EST 7:09 PM EST
Astronomical Twilight 5:42 AM EST 7:37 PM EST
Moon 10:48 PM EST (2/19) 9:27 AM EST (2/19)
Length of Visible Light 12h 01m
Length of Day
11h 11m
Waning Gibbous, 80% of the Moon is Illuminated
Feb 19
Waning Gibbous
Feb 22
Last Quarter
Mar 1
New
Mar 8
First Quarter
Mar 16
Full

Hourly Weather History & Observations

Time (EST) Temp. Dew Point Humidity Pressure Visibility Wind Dir Wind Speed Gust Speed Precip Events Conditions
12:58 AM 55.0 °F 54.9 °F 99% 30.12 in 10.0 mi SSE 4.6 mph - N/A   Clear
1:58 AM 55.0 °F 55.0 °F 100% 30.11 in 10.0 mi South 3.5 mph - N/A   Scattered Clouds
2:58 AM 55.6 °F 55.6 °F 100% 30.12 in 10.0 mi WSW 3.5 mph - N/A   Mostly Cloudy
3:58 AM 54.9 °F 54.9 °F 100% 30.13 in 10.0 mi NNW 1.2 mph - N/A   Scattered Clouds
4:58 AM 51.6 °F 51.6 °F 100% 30.11 in 10.0 mi South 4.6 mph - N/A   Mostly Cloudy
5:58 AM 51.6 °F 51.6 °F 100% 30.11 in 10.0 mi Calm Calm - N/A   Mostly Cloudy
6:58 AM 50.2 °F 50.2 °F 100% 30.12 in 10.0 mi Calm Calm - N/A   Partly Cloudy
7:33 AM 48.2 °F 48.2 °F 100% 30.12 in 1.2 mi Calm Calm - N/A   Clear
7:43 AM 48.2 °F 48.2 °F 100% 30.13 in 2.5 mi Calm Calm - N/A   Clear
7:48 AM 48.2 °F 48.2 °F 100% 30.13 in 4.0 mi Calm Calm - N/A   Clear
7:58 AM 48.6 °F 48.6 °F 100% 30.15 in 8.0 mi Calm Calm - N/A   Clear
8:58 AM 57.9 °F 57.9 °F 100% 30.16 in 10.0 mi SW 9.2 mph - N/A   Clear
9:58 AM 66.4 °F 52.2 °F 60% 30.15 in 10.0 mi WSW 8.1 mph - N/A   Mostly Cloudy
10:58 AM 72.0 °F 46.8 °F 41% 30.15 in 10.0 mi WSW 9.2 mph - N/A   Mostly Cloudy
11:58 AM 75.4 °F 48.2 °F 38% 30.12 in 10.0 mi SW 12.7 mph 17.3 mph N/A   Clear
12:58 PM 78.3 °F 50.0 °F 37% 30.09 in 10.0 mi WSW 20.7 mph 25.3 mph N/A   Clear
1:58 PM 79.3 °F 52.2 °F 39% 30.05 in 10.0 mi SW 15.0 mph 21.9 mph N/A   Clear
2:39 PM 80.6 °F 51.8 °F 37% 30.04 in 10.0 mi West 16.1 mph 23.0 mph N/A   Clear
2:58 PM 80.2 °F 52.7 °F 38% 30.04 in 10.0 mi West 11.5 mph - N/A   Clear
3:58 PM 80.6 °F 52.7 °F 38% 30.05 in 10.0 mi West 11.5 mph 19.6 mph N/A   Clear
4:58 PM 79.5 °F 53.6 °F 41% 30.06 in 10.0 mi WSW 10.4 mph - N/A   Clear
5:58 PM 75.9 °F 54.5 °F 47% 30.07 in 10.0 mi West 4.6 mph - N/A   Clear
6:58 PM 66.9 °F 54.7 °F 65% 30.08 in 10.0 mi Calm Calm - N/A   Clear
7:58 PM 63.3 °F 54.3 °F 72% 30.08 in 10.0 mi Calm Calm - N/A   Clear
8:53 PM 66.2 °F 55.4 °F 68% 30.08 in 9.0 mi SSE 3.5 mph - N/A   Clear
8:58 PM 65.8 °F 55.2 °F 69% 30.09 in 8.0 mi SSE 4.6 mph - N/A   Clear
9:58 PM 63.0 °F 55.9 °F 78% 30.10 in 7.0 mi SSE 3.5 mph - N/A   Clear
10:58 PM 58.1 °F 54.9 °F 89% 30.12 in 7.0 mi Calm Calm - N/A   Clear
11:28 PM 57.2 °F 55.4 °F 94% 30.11 in 4.0 mi Calm Calm - N/A   Clear
11:38 PM 57.2 °F 55.4 °F 94% 30.11 in 7.0 mi Calm Calm - N/A   Clear
11:58 PM 56.3 °F 55.2 °F 96% 30.11 in 4.0 mi Calm Calm - N/A   Clear